Find Local Weather

World > North America > United States > Missouri

Bernie, Missouri Regional Weather

Lat: 36.67N, Lon: 89.97W
Wx Zone: MOZ110
Warning FLW WEATHER ALERT - (More Info. Click Here) Warning
Feedback
Expires:201901240100;;823362
ASUS43 KLSX 232357
RWRMO 

WEATHER SUMMARY FOR MISSOURI
NATIONAL WEATHER SERVICE SPRINGFIELD MO
600 PM CST WED JAN 23 2019

NOTE: "FAIR" INDICATES FEW OR NO CLOUDS BELOW 12,000 FEET WITH NO
       SIGNIFICANT WEATHER AND/OR OBSTRUCTIONS TO VISIBILITY.
       CURRENT SKY AND/OR WEATHER CONDITIONS ARE NOT AVAILABLE FOR
       CHILLICOTHE AND FARMINGTON.


MOZ072>076-082>087-097>100-106>115-240100-
...SOUTH CENTRAL AND SOUTHEAST MISSOURI...
  
CITY           SKY/WX    TMP DP  RH WIND       PRES   REMARKS
CAPE GIRARDEAU CLOUDY    31  23  72 NW12      29.93R WCI  22          
6HR MIN TEMP:  31; 6HR MAX TEMP:  36;                                

POPLAR BLUFF   CLOUDY    30  24  78 NW8       29.94R WCI  22          
6HR MIN TEMP:  30; 6HR MAX TEMP:  35;                                

WEST PLAINS    CLOUDY    25  19  78 NW10      29.95R WCI  15          
6HR MIN TEMP:  25; 6HR MAX TEMP:  26;                                

                                       
$$
  

SKY/WX - Weather  TMP - Temperature  DP - Dew Point  RH - Relative Humidity
WIND - Wind Direction/Speed PRES - Barometric Pressure